Location: Nelson
(41.2830°S, 173.2830°E)
Time: 18:23:07
(UTC+12:00)

Cosmos 1777 Rocket - Pass Details

Date: 14 May 2021
Orbit: 758 x 776 km, 74.0° (Epoch: 19 June)

Event Time Altitude Azimuth Distance (km) Brightness Sun altitude
Rises 18:45:36 0° 198° (SSW) 3,282 7.4 -16.3°
Reaches altitude 10° 18:48:01 10° 195° (SSW) 2,346 6.6 -16.8°
Maximum altitude 18:53:21 70° 111° (ESE) 828 3.9 -17.7°
Drops below altitude 10° 18:58:34 10° 27° (NNE) 2,304 6.3 -18.7°
Sets 19:00:56 0° 24° (NNE) 3,219 7.1 -19.2°
